CZ-6A DEB

Satellite information

Favourite Embed

Satellite Type and Status

DEBRISIN ORBIT

Key statistics

Satellite CZ-6A DEB at a glance.

Uptime

1072

Days in orbit

Revolutions

≈ 14.1

Per day

Orbit

SSO

Sun Synchronous Orbit

Inclination

98.8

Latest

Satellite identification and parameters

Extended collection of information and parameters for CZ-6A DEB.

Object identification

Identified? True

Debris? True

Object name: CZ-6A DEB

International designator: 2022-151ADS

Object number (NORAD): 56594

Object ID (CCSDS): 56594

Country: PEOPLES REPUBLIC OF CHINA (PRC)

Current information (Y/N): Y

RCS size: SMALL

Orbital parameters

Period: 101.793 minutes

Inclination: 98.8019 deg

SMA: 7221.709 km

Apoapsis: 863.127 km

Periapsis: 824.021 km

RAAN: 295.1935 deg

Eccentricy: 0.00270756

Argument of periapsis: 232.624 deg

Mean anomaly: 127.2467 deg

Mean motion: 14.14629721 rev/day

Mean motion (dot): 0.00000404 rev/day2

B* drag term: 0.00023248984 1/REarth

Two-line elements (TLE)

Creation date: Oct. 18, 2025, 2:17 a.m.

Reference frame: TEME

Reference center: EARTH

Epoch: Oct. 17, 2025, 11:03 p.m. UTC

TLE line 0: 0 CZ-6A DEB

TLE line 1: 1 56594U 22151ADS 25290.96045668 .00000404 00000-0 23249-3 0 9993

TLE line 2: 2 56594 98.8019 295.1935 0027076 232.6240 127.2467 14.14629721133240

Live tracking on map

Real-time ground track for satellite CZ-6A DEB.

In-orbit conjunctions

A list of the most updated potential collisions computed for object CZ-6A DEB.

Target Orbit TCA Probability of collision Miss distance Type
COSMOS 1275 DEB LEO 2025-07-13 18:04:49 0.0001533296 19.0 (m) DEBRIS
DELTA 1 DEB SSO 2025-03-30 02:14:43 0.0001848893 179.0 (m) DEBRIS
IRIDIUM 33 DEB LEO 2024-11-10 18:37:44 0.0001424428 199.0 (m) DEBRIS

Associated space launch

Chinese satellite reported for atmospheric/ocean/environmental/spatial parameter research purposes, details TBD.

CZ-6A DEB was lifted into orbit during the mission ‘Long March 6A | Yunhai 3’, on board a Long March 6A space rocket.

The launch took place on Nov. 11, 2022, 10:52 p.m. from Launch Complex 9A.

For more information about the launch, click the button.

Launch to space Long March 6A | Yunhai 3
Long March 6A | Yunhai 3

Agency: N/A

Status: Launch Successful

Launch date: Nov. 11, 2022, 10:52 p.m. UTC

Rocket: Long March 6A

Launch pad: Launch Complex 9A

Location: Taiyuan Satellite Launch Center, People's Republic of China

...

Latest news about this satellite

There are no fresh news available about this satellite. Check back as we update our databases every day.


Newsletter sign-up

Weekly statistics, charts and insights to help you stay on top of the space industry.